星链-5727 (STARLINK-5727 )

导读

STARLINK-5727是美国太空探索技术公司(SpaceX)“星链”星座的组网卫星,于2023年2月12日发射入轨,属于星链低轨互联网星座的建设组成部分。这类卫星通过星链组网提供全球范围的高速互联网服务,尤其覆盖偏远地区等网络空白区域,支撑卫星互联网的全球覆盖能力建设。

基本信息
目录编号:
55587
目录名称:
STARLINK-5727
国际标识:
2023-020U
轨道中心:
EARTH
卫星名称:
星链-5727
卫星全名:
星链-5727 (STARLINK-5727 )
卫星状态:
在轨 (已飞行1308 天)
发射日期:
2023-02-12 UTC
国别 :
美国 (US)
星等 :
--
该卫星已列入 空间交会检测服务 Space Conjunction Data Service (SCDS) ,当前飞行风险评估等级: 无高风险
轨道信息
数据来源 国际轨道数据
星历时间: 2026-09-12T01:30:30+0800
22小时前
查看轨道信息
半长轴: 6861.193km
偏心率: 0.0001588
轨道倾角: 43.004°
近地点辐角 273.522°
升交点赤经 34.603°
平近点角 86.545°
近地点: 481.966km
远地点: 484.146km
周期: 94.267分钟
每日圈数: 15.275777
详细信息
固有亮度:
5
最大亮度:
2.5
卫星平台:
Starlink v1.5
覆盖范围:
全球
运营商:
太空探索技术公司
运营商所在国:
美国
制造商(研发单位):
太空探索技术公司
制造商所在国:
美国
使用方式:
暂无
卫星简介
星链(Starlink)计划是由太空探索技术公司(SpaceX)提出的一个巨型低轨卫星互联网星座项目,计划在2019年至2024年间在太空搭建由约1.2万颗卫星组成的“星链”网络,其中1584颗将部署在地球上空550千米处的近地轨道,并从2020年开始工作。该卫星仍在工作。
2D轨道图
3D轨道图
轨道高度分析图
轨道倾角分析图
轨道综合分析图
查看轨道综合分析图
交会数据列表
事件ID 空间交会对象 最接近时刻(TCA) 交会距离 交会风险概率(CRP) 交会风险指数(CRI) 操作
CDM_260906-054405-558705-870324
2026-09-06T
05:44:28+0000
1.170 km
极远距离
9.348471E-6 低风险 0.54
CDM_260912-164705-558706-268424
IRIS-F2 (62684)
2026-09-12T
16:47:44+0000
1.233 km
极远距离
9.2434E-6 低风险 0.54
与全量物体交会距离演化趋势
与全量物体交会风险概率演化趋势